Simultaneous Nadir Overpasses (SNOs) Predictions

Prediction of SNOs between AQUA and METOP-B Satellite Orbit:

Table of predicted SNOs for the next 14.0 days since TLE Epoch: 2/24/2024
Index Date (AQUA) Time (AQUA) Lat,Lon (AQUA) SZA (AQUA ) Date (METOP-B) Time (METOP-B) Lat,Lon (METOP-B) SZA (METOP-B ) Distance(km) Time Diff (sec)
1 02/25/2024 12:05:18 74.80, -2.99 83.95 02/25/2024 12:04:13 74.73, -6.10 83.98 91.19 65
2 02/25/2024 12:54:52 -75.41, 163.03 95.43 02/25/2024 12:54:41 -75.40, 163.14 95.43 3.21 11
3 02/25/2024 13:44:16 75.42, -29.34 84.58 02/25/2024 13:45:20 75.44, -29.42 84.59 2.92 64
4 02/28/2024 05:06:34 -75.40, -79.84 96.44 02/28/2024 05:06:22 -75.40, -79.81 96.44 1.00 12
5 02/28/2024 05:55:59 75.47, 87.63 83.62 02/28/2024 05:57:01 75.43, 87.63 83.58 3.99 62
6 03/01/2024 21:18:16 -75.42, 37.24 97.44 03/01/2024 21:18:04 -75.39, 37.22 97.47 3.11 12
7 03/01/2024 22:07:40 75.44,-155.17 82.57 03/01/2024 22:08:42 75.47,-155.21 82.60 3.28 62
8 03/04/2024 12:40:22 74.81, -11.65 80.90 03/04/2024 12:39:17 74.74, -14.89 80.93 94.87 65
9 03/04/2024 13:29:56 -75.40, 154.41 98.49 03/04/2024 13:29:45 -75.42, 154.37 98.47 1.94 11
10 03/04/2024 14:19:21 75.48, -38.16 81.59 03/04/2024 14:20:23 75.49, -38.07 81.59 3.03 62
11 03/07/2024 04:52:02 74.87, 105.32 79.92 03/07/2024 04:50:57 74.81, 102.36 79.95 86.57 65
12 03/07/2024 05:41:35 -75.41, -88.48 99.53 03/07/2024 05:41:26 -75.44, -88.52 99.50 3.12 9



Historial Predications of SNOs between AQUA and METOP-B
